Regional Weather Roundup
Issued by NWS

Home | Current Version | Previous Version | Text Only | Print | Product List | Glossary On
Versions: 1 2 3 4 5 6 7 8 9 10 11 12 13 14 15 16 17 18 19 20 21 22 23 24 25 26 27 28 29 30 31 32 33 34 35 36 37 38 39 40 41 42 43 44 45 46 47 48 49 50
000
ASUS43 KMPX 301601
RWRMN
WEATHER ROUNDUP FOR MINNESOTA
NATIONAL WEATHER SERVICE TWIN CITIES/CHANHASSEN MN
1100 AM CDT TUE JUN 30 2015


NOTE: "FAIR" INDICATES FEW OR NO CLOUDS BELOW 12,000 FEET WITH NO
SIGNIFICANT WEATHER AND/OR OBSTRUCTIONS TO VISIBILITY. N/A MEANS
CURRENT SKY AND/OR WEATHER CONDITIONS ARE NOT AVAILABLE.

MNZ060>063-068>070-301700-
   Twin Cities Metro

CITY           SKY/WX    TMP DP  RH WIND       PRES   REMARKS
TWIN CITIES    PTSUNNY   70  60  70 NE8G21    29.94R
ST PAUL        CLOUDY    69  60  73 NE8       29.94S
CRYSTAL        PTSUNNY   71  60  68 NE10      29.93S
BLAINE         PTSUNNY   70  63  78 N7        29.95R
LAKEVILLE      PTSUNNY   68  61  77 NE3       29.94R
EDEN PRAIRIE   MOSUNNY   73  61  65 NE9       29.92S
SOUTH ST PAUL  CLOUDY    67  59  75 NE8       29.94R
LAKE ELMO      CLOUDY    66  61  82 NE7       29.96S
$$
MNZ001>005-007-008-013>017-022>024-027-028-301700-
   Northwest Minnesota

CITY           SKY/WX    TMP DP  RH WIND       PRES   REMARKS
BEMIDJI        SUNNY     67  56  69 CALM      29.98S
HALLOCK        MOSUNNY   68  61  77 S5        29.96F
ROSEAU         MOSUNNY   68  57  68 S3        29.98F
WARROAD        SUNNY     64  55  72 E7        30.00S
THIEF RVR FALL PTSUNNY   66  57  72 E3        29.98F
CROOKSTON      PTSUNNY   70  61  73 CALM      29.97F
FOSSTON        MOSUNNY   70  61  73 CALM      29.98F
DETROIT LAKES  PTSUNNY   70  54  56 CALM      29.98F
MOORHEAD       PTSUNNY   68  61  77 CALM      29.96F
PARK RAPIDS    PTSUNNY   70  55  59 N3        29.97S
MAHNOMEN       FAIR      68  58  69 CALM      29.98R
$$
MNZ006-009>011-018-025>026-301700-
   North Central Minnesota

CITY           SKY/WX    TMP DP  RH WIND       PRES   REMARKS
BAUDETTE       SUNNY     64  53  67 SE5       29.98F
FLAG ISLAND    SUNNY     63  50  63 SE6       29.98F
INTL FALLS     SUNNY     63  49  60 E8        29.99S
WASKISH        SUNNY     66  54  63 NE5       29.98S
BIG FORK       SUNNY     64  54  68 E5        29.99S
LONGVILLE      SUNNY     66  57  72 N5        29.97S
GRAND RAPIDS   PTSUNNY   63  54  72 NE3       29.98F
COOK           SUNNY     61  52  72 CALM      29.99F
WALKER         FAIR      64  56  76 E5        29.98S
$$
MNZ012-019>021-037-301700-
   Northeast Minnesota

CITY           SKY/WX    TMP DP  RH WIND       PRES   REMARKS
DULUTH         CLOUDY    57  48  72 SE8       29.99R
ELY            SUNNY     59  46  63 NE7       29.99S
HIBBING        CLOUDY    62  51  67 VRB3      29.99S
EVELETH        MOSUNNY   61  52  72 N3        30.00S
DULUTH HARBOR  CLOUDY    59  48  67 E13       30.00S
TWO HARBORS    SUNNY     63  48  59 E10       29.98R
SILVER BAY     SUNNY     63  45  51 E7        29.97S
GRAND MARAIS     N/A     53  43  68 S5        30.00R
G MARAIS ARPRT SUNNY     57  43  58 N8        30.00R
$$
MNZ029>031-032-039>041-046>048-054>057-064-301700-
   West Central Minnesota

CITY           SKY/WX    TMP DP  RH WIND       PRES   REMARKS
FERGUS FALLS   PTSUNNY   70  57  64 CALM      29.95F
WHEATON        MOSUNNY   66  61  82 E5        29.97S
MORRIS         MOSUNNY   72  59  64 E6        29.95S
ALEXANDRIA     MOSUNNY   71  55  56 E5        29.98S
ELBOW LAKE     FAIR      69  57  63 SE3       29.96F
WADENA         MOSUNNY   70  57  64 NE3       29.97S
GLENWOOD       SUNNY     72  57  60 NE3       29.97S
APPLETON       MOSUNNY   72  59  64 E8        29.95R
BENSON         SUNNY     72  57  60 SE5       29.96R
ORTONVILLE     MOSUNNY   68  59  73 E6        29.95S
MADISON        PTSUNNY   70  61  73 E5        29.95S
WILLMAR        FAIR      72  57  60 NE7       29.96S
$$
MNZ033>034-036-042>043-049>051-058-059-301700-
   Central Minnesota

CITY           SKY/WX    TMP DP  RH WIND       PRES   REMARKS
ST CLOUD       PTSUNNY   71  59  65 NE5       29.95S
SAUK CENTRE    FAIR      70  58  64 CALM      29.96F
PAYNESVILLE    SUNNY     69  57  65 CALM      29.95F
AITKIN         PTSUNNY   70  57  64 N6        29.95S
PINE RIVER     SUNNY     70  55  60 N5        30.00S
BRAINERD       SUNNY     70  55  59 N7        29.97S
STAPLES        MOSUNNY   70  55  60 CALM      29.97S
LONG PRAIRIE   FAIR      68  57  68 CALM      29.97S
LITTLE FALLS   PTSUNNY   68  54  60 CALM      29.96F
LITCHFIELD     SUNNY     73  61  64 NE5       29.95F
BUFFALO        MOSUNNY   70  59  66 N7        29.96S
MAPLE LAKE     PTSUNNY   71  62  72 NE3       29.95S
$$
MNZ037-044-045-052-053-301700-
   East Central Minnesota

CITY           SKY/WX    TMP DP  RH WIND       PRES   REMARKS
PRINCETON      CLOUDY    70  61  73 CALM      29.96S
MORA           PTSUNNY   64  59  82 NE7       29.98F
CAMBRIDGE      MOSUNNY   70  57  64 CALM      29.94S
MOOSE LAKE     CLOUDY    61  59  94 NE6       29.97R
HINCKLEY       CLOUDY    64  59  82 NE7       29.96S
CLOQUET        CLOUDY    59  50  72 E7        29.99R
MCGREGOR       PTSUNNY   64  55  72 NE5       29.98F
$$
MNZ071>073-080-081-089-090-097-098-301700-
   Southwest Minnesota

CITY           SKY/WX    TMP DP  RH WIND       PRES   REMARKS
MONTEVIDEO     MOSUNNY   70  63  78 SE7       29.95S
GRANITE FALLS  MOSUNNY   68  60  76 NE8       29.96S
CANBY          PTSUNNY   68  62  78 SE6       29.95S
MARSHALL       PTSUNNY   68  57  68 E5          N/A
REDWOOD FALLS  SUNNY     72  61  68 E6        29.94S
OLIVIA         SUNNY     68  57  68 NE6       29.93F
PIPESTONE      CLOUDY    72  63  73 E6        29.95S
WINDOM         SUNNY     70  63  78 CALM      29.95S
WORTHINGTON    MOSUNNY   68  63  83 N3        29.96S
JACKSON        SUNNY     70  63  78 NE3       29.95F
TRACY          MOSUNNY   69  63  81 E3        29.96S
SLAYTON        MOSUNNY   68  64  88 CALM      29.96F
$$
MNZ065>067-074>077-082>085-091>093-301700-
   South Central Minnesota

CITY           SKY/WX    TMP DP  RH WIND       PRES   REMARKS
MANKATO        MOSUNNY   72  61  68 NE7       29.93F
NEW ULM        SUNNY     70  59  68 NE6       29.94R
ST JAMES       SUNNY     72  63  73 NE3       29.95S
FAIRMONT       MOSUNNY   70  61  73 NE6       29.94S
GLENCOE        SUNNY     72  62  69 N3        29.94S
FARIBAULT      MOSUNNY   72  63  73 N7        29.94R
OWATONNA       MOSUNNY   72  61  68 NE5       29.93S
WASECA         MOSUNNY   72  61  68 CALM      29.94S
ALBERT LEA     MOSUNNY   72  64  78 CALM      29.93R
$$
MNZ078>079-086>088-094>096-301700-
   Southeast Minnesota

CITY           SKY/WX    TMP DP  RH WIND       PRES   REMARKS
ROCHESTER      PTSUNNY   71  63  75 NE9       29.94R
RED WING       CLOUDY    66  61  82 E5        29.92S
DODGE CENTER   CLOUDY    70  63  78 NE9       29.94R
WINONA         CLOUDY    63  57  82 E3        29.92S
AUSTIN         MOSUNNY   72  63  73 NW5       29.92S
PRESTON        CLOUDY    66  60  82 N7        29.93R
$$
ABBREVIATIONS USED IN REMARKS
   TC - TEMPERATURES IN CELSIUS
  WCI - WIND CHILL INDEX
   HX - HEAT INDEX
  VSB - VISIBILITY
$$



USA.gov is the U.S. government's official web portal to all federal, state and local government web resources and services.